Flag for Australia Weather past 2 weeks in Adelaide, South Australia, Australia

Now
45 °F

Quite cool.


Feels Like: 40 °F
Forecast: 47 / 59 °F
Wind: 9 mph from Northeast

Location: Adelaide Airport

Current Time: Jul 27, 2014 at 2:55:12 AM

Latest Report: Jul 27, 2014 at 2:30 AM


Visibility: N/A

Pressure: 30.24 "Hg

Humidity: 87%

Dew point: 41 °F

Location of AdelaideLocation

Historic Weather in Adelaide — Graph

°F

Adelaide temperature yesterday

Maximum temperature yesterday: 59 °F (at 1:30 PM)
Minimum temperature yesterday: 46 °F (at 8:30 PM)
Average temperature yesterday: 52 °F

Past Weeks' High & Low Weather Summary

 TemperatureHumidityPressure
High64 °F (Jul 22, 1:00 PM)100% (Jul 16, 2:00 AM)30.54 "Hg (Jul 16, 2:00 AM)
Low37 °F (Jul 18, 4:30 AM)37% (Jul 22, 12:00 PM)29.65 "Hg (Jul 24, 4:00 AM)
Average51 °F77%30.17 "Hg
* Reported Jul 12 1:30 AM — Jul 27 1:30 AM, Adelaide, Weather by CustomWeather, © 2014

Note: Actual official high and low records may vary slightly from our data, if they occured in-between our weather recording intervals... More about our weather records

Advertising

Adelaide weather history for previous 24 hours

 ConditionsComfort  
Time TempWeatherWind HumidityBarometerVisibility
1:30 AM
Jul 27
45 °FClear.10 mph87%30.24 "Hg10 mi
1:00 AM45 °FClear.9 mph87%30.24 "Hg10 mi
12:30 AM45 °FClear.9 mph93%30.27 "Hg10 mi
12:00 AM46 °FClear.9 mph87%30.27 "Hg10 mi
11:30 PM
Jul 26
46 °FClear.9 mph87%30.27 "Hg10 mi
11:00 PM46 °FClear.9 mph87%30.27 "Hg10 mi
10:30 PM46 °FClear.9 mph87%30.30 "Hg10 mi
10:00 PM46 °FClear.8 mph87%30.30 "Hg10 mi
9:30 PM48 °FClear.8 mph82%30.30 "Hg10 mi
9:00 PM48 °FClear.8 mph87%30.30 "Hg10 mi
8:30 PM46 °FClear.6 mph93%30.30 "Hg10 mi
8:00 PM50 °FPassing clouds.6 mph82%30.30 "HgN/A
7:30 PM50 °FPassing clouds.7 mph82%30.30 "HgN/A
7:00 PM50 °FPassing clouds.6 mph88%30.30 "HgN/A
6:30 PM50 °FPassing clouds.6 mph88%30.30 "HgN/A
6:00 PM52 °FPassing clouds.6 mph88%30.30 "HgN/A
5:30 PM55 °FPassing clouds.7 mph77%30.30 "HgN/A
5:00 PM57 °FPassing clouds.10 mph72%30.30 "HgN/A
4:30 PM57 °FPassing clouds.10 mph77%30.27 "HgN/A
4:00 PM59 °FPassing clouds.12 mph72%30.30 "HgN/A
3:30 PM59 °FPassing clouds.12 mph72%30.30 "HgN/A
3:00 PM59 °FPassing clouds.13 mph68%30.27 "HgN/A
2:30 PM59 °FPassing clouds.10 mph72%30.27 "HgN/A
2:00 PM59 °FPassing clouds.9 mph72%30.30 "HgN/A
1:30 PM59 °FPassing clouds.8 mph77%30.30 "HgN/A
1:00 PM57 °FPassing clouds.8 mph82%30.30 "HgN/A
12:30 PM55 °FScattered clouds.7 mph88%30.33 "HgN/A
12:00 PM54 °FPartly sunny.8 mph94%30.33 "HgN/A
11:30 AM54 °FPartly sunny.8 mph94%30.36 "HgN/A
10:30 AM52 °FFog.8 mph100%30.36 "Hg1 mi
10:00 AM52 °FFog.8 mph100%30.36 "Hg0 mi
9:30 AM50 °FFog.8 mph100%30.36 "Hg0 mi
9:00 AM50 °FFog.7 mph100%30.36 "Hg0 mi
8:30 AM50 °FFog.8 mph100%30.33 "Hg0 mi
7:30 AM50 °FFog.7 mph100%30.30 "Hg0 mi
7:00 AM50 °FFog.8 mph100%30.30 "Hg0 mi
6:30 AM50 °FFog.8 mph100%30.30 "Hg0 mi
5:30 AM50 °FFog.7 mph100%30.27 "Hg0 mi
5:00 AM50 °FFog.7 mph100%30.27 "Hg0 mi
4:30 AM50 °FFog.7 mph100%30.27 "Hg0 mi
4:00 AM50 °FPassing clouds.7 mph100%30.24 "Hg2 mi
3:30 AM50 °FPassing clouds.7 mph100%30.24 "Hg1 mi
3:00 AM50 °FPassing clouds.7 mph100%30.24 "Hg1 mi
2:30 AM50 °FFog.6 mph100%30.24 "Hg0 mi
2:00 AM48 °FFog.7 mph100%30.24 "Hg0 mi
Weather by CustomWeather, © 2014

See weather overviewHow to use our weather pages